Vorticity
21 19 16 15 13 12 12 11 11 11 11 11 11 11 11 11 11 11 10 10 10 10 10 10 10 10 10 11 11 11 11 11 11 11 12 12 12 12 12 12 12 12 12 12 12 11 11 11 11 11 11 11 10 10 10 10 10 11 12 14 16 18 21 23 23 23 21 19 17
18 16 14 12 12 11 11 11 11 11 11 11 10 10 10 10 10 9 9 9 9 9 9 9 9 10 10 10 10 10 10 10 11 11 11 11 11 12 12 12 12 11 11 11 11 11 11 11 11 11 12 12 11 11 10 10 10 10 11 12 13 16 18 21 23 23 22 20 18
15 13 12 11 11 11 11 11 10 10 10 9 9 9 8 8 8 8 8 8 8 8 9 9 9 9 9 9 9 9 10 10 10 10 10 11 11 11 11 11 11 11 11 11 11 11 11 11 11 11 11 12 12 12 12 11 11 11 11 11 12 14 17 19 22 24 24 22 20
13 12 11 10 10 10 10 10 10 9 9 8 8 8 8 8 8 8 8 8 9 9 9 9 9 9 9 9 9 9 9 9 9 9 9 9 10 10 10 10 11 11 11 11 11 11 11 10 10 10 11 11 12 12 12 13 12 11 11 10 11 13 15 18 21 23 24 23 21
11 11 10 10 10 10 10 9 9 8 8 8 8 8 8 9 9 9 9 10 10 10 10 10 10 10 10 10 9 9 9 9 9 9 9 9 9 9 9 10 10 10 10 10 10 10 10 10 10 10 10 10 11 11 12 13 12 12 11 11 11 12 14 16 20 22 24 25 23
10 10 10 10 10 10 9 9 8 8 8 8 8 9 9 10 10 10 11 11 11 11 11 10 10 10 10 10 10 10 9 9 9 9 8 8 8 8 8 9 9 9 9 9 9 9 10 10 10 10 10 10 10 10 11 11 12 12 12 12 11 12 13 15 18 21 24 25 24
10 10 10 10 9 9 9 8 8 8 8 9 9 10 10 10 11 11 11 11 11 11 11 10 10 10 10 10 10 9 9 9 9 9 8 8 8 8 8 8 8 8 8 9 9 9 9 9 9 10 10 10 10 10 9 10 10 11 11 12 12 12 12 14 17 20 23 25 25
9 9 9 9 9 9 8 8 8 9 9 10 10 10 11 11 11 11 11 11 11 11 11 10 10 10 10 10 9 9 9 9 9 9 9 8 8 8 8 8 8 8 8 9 9 9 9 9 9 9 10 10 10 10 9 9 9 10 10 11 11 12 12 13 16 19 22 24 25
9 9 9 9 9 8 8 8 9 9 10 10 11 11 11 11 11 11 11 11 11 11 11 10 10 10 10 10 10 10 10 10 10 9 9 9 9 9 9 9 8 9 9 9 9 10 9 9 9 9 9 10 10 10 10 9 9 9 9 10 11 11 12 13 15 17 20 23 25
9 9 9 9 9 8 8 9 9 10 10 11 11 11 11 12 12 12 12 11 11 11 11 11 11 11 11 11 11 11 11 11 11 11 11 11 11 11 11 11 10 10 10 11 11 11 11 11 10 10 10 10 10 10 10 10 9 9 9 9 10 11 12 12 14 16 19 22 25
9 9 9 9 8 8 8 9 10 10 11 11 11 11 12 11 12 12 12 12 12 12 12 12 12 13 13 13 13 13 13 13 14 14 14 14 14 14 14 13 13 12 12 12 13 13 13 13 12 12 11 11 10 10 10 10 10 9 9 9 9 10 11 12 13 15 18 21 24
9 9 9 8 8 8 9 9 10 10 11 11 11 11 11 11 12 12 12 12 13 13 13 14 14 14 14 15 15 15 15 16 16 17 17 17 17 17 17 16 16 15 15 15 15 15 15 15 14 14 13 12 12 11 11 11 10 10 9 9 9 9 10 11 12 14 17 21 24
9 9 8 8 8 8 9 9 10 10 10 11 11 11 11 11 11 12 13 13 14 14 15 15 16 17 17 17 17 18 18 19 20 20 21 21 21 21 20 19 18 18 17 17 17 17 17 17 17 16 15 14 13 13 12 11 11 11 10 10 9 9 9 10 11 13 16 20 23
9 8 8 8 8 8 9 9 9 10 10 10 10 11 11 11 12 12 13 14 14 15 16 17 18 20 20 21 22 23 24 25 26 28 28 29 29 28 27 25 23 21 20 19 19 18 18 18 18 18 17 16 15 14 13 12 12 11 11 10 10 10 10 10 11 13 15 19 22
9 8 8 8 8 8 9 9 9 9 9 10 10 10 11 11 12 12 13 13 14 16 18 20 22 24 25 27 29 31 33 35 37 38 39 40 40 39 37 35 32 28 25 22 21 20 20 20 20 19 19 18 17 16 15 14 13 12 11 11 11 10 10 10 10 12 14 17 21
9 8 8 8 8 8 8 8 8 8 9 9 10 10 11 11 11 12 12 12 15 18 22 25 27 30 32 34 37 39 41 44 45 46 47 48 48 48 47 45 42 38 33 28 25 23 22 21 21 21 20 19 18 17 16 15 14 13 12 12 11 10 10 10 10 11 13 16 20
9 8 8 8 8 8 7 7 8 8 9 9 10 10 11 11 11 11 11 12 16 21 26 30 34 36 39 41 43 44 45 46 46 47 48 48 50 51 51 52 50 47 42 36 31 27 24 23 22 22 21 21 20 19 18 16 15 14 13 12 12 11 10 10 10 11 13 15 19
9 9 8 8 8 7 7 7 7 8 8 9 9 10 10 11 10 10 10 13 19 25 31 35 39 41 43 43 43 43 42 42 41 41 42 43 45 47 49 51 52 51 48 43 36 31 27 25 23 23 23 23 22 20 18 17 16 14 14 13 12 11 10 10 10 11 12 15 18
9 9 9 8 7 7 7 7 7 8 8 9 9 10 10 10 9 9 10 14 22 30 35 39 42 43 43 42 40 38 36 35 35 35 36 38 40 42 44 47 50 51 50 47 40 35 30 27 26 25 25 25 23 21 19 18 16 15 14 13 12 12 11 11 10 11 12 15 18
10 9 9 8 7 7 7 7 7 8 8 9 9 10 10 10 8 8 11 17 26 33 39 42 43 42 40 38 35 33 32 31 32 33 35 37 39 41 42 45 47 50 50 48 42 37 32 29 29 28 27 26 25 23 21 18 17 16 15 14 13 12 12 11 11 11 13 15 18
11 10 9 8 7 7 7 7 7 8 8 8 9 9 9 9 8 8 12 20 29 37 42 44 43 40 37 34 32 30 30 30 33 36 38 41 42 43 44 45 47 49 49 48 42 37 33 31 27 24 23 27 28 27 23 20 18 16 15 15 14 13 13 12 11 12 13 15 18
11 11 10 9 8 8 8 7 8 8 8 9 9 9 9 8 7 8 13 23 32 39 43 44 42 38 34 31 29 29 31 34 38 41 43 45 45 46 46 47 48 49 48 46 41 36 33 31 20 13 13 23 28 29 26 23 20 18 17 16 16 15 14 13 12 13 14 16 18
12 12 11 10 9 8 8 8 8 8 9 9 9 9 8 8 6 8 14 25 35 42 44 44 40 36 32 29 29 31 35 40 43 45 46 46 46 47 47 47 48 47 46 43 38 35 31 27 9 3 6 18 25 28 28 26 23 21 20 19 18 17 15 14 14 14 15 17 18
13 13 12 11 10 9 8 8 8 9 9 9 8 8 8 7 6 8 15 27 37 43 45 44 39 34 31 30 32 35 39 44 45 45 44 44 44 43 43 43 43 42 41 38 36 34 29 17 -5 -10 -2 15 22 26 28 28 26 25 24 23 21 19 17 16 16 16 17 18 20
15 14 13 11 10 9 9 9 9 10 10 9 8 8 7 7 6 8 15 27 39 45 46 43 37 33 31 33 37 41 44 45 42 39 37 37 36 35 35 35 35 35 34 33 33 30 19 -7 -18 -11 3 12 20 25 28 28 27 27 26 26 23 20 19 19 18 18 19 20 21
15 15 13 12 10 10 10 10 11 10 10 8 7 7 7 7 6 8 15 27 39 46 47 43 37 34 34 37 41 44 45 43 36 31 27 25 25 25 25 27 28 29 30 31 31 19 -0 -22 -10 -1 6 14 22 26 27 25 24 24 25 27 26 23 21 21 20 20 20 21 21
16 15 14 12 11 11 11 11 11 11 10 8 7 7 7 7 6 8 15 27 40 46 47 43 38 36 36 40 41 41 39 34 27 22 18 15 15 16 19 22 27 30 32 34 22 3 -13 -12 2 8 10 17 24 27 26 21 19 19 21 26 26 25 23 21 21 21 21 21 20
17 15 14 13 12 12 12 12 12 11 10 8 7 7 7 7 6 8 15 26 39 46 48 45 40 38 37 40 40 37 33 27 20 15 10 7 7 10 15 23 32 35 33 25 13 -3 -10 2 7 10 12 17 19 21 20 17 15 15 17 21 22 22 21 21 21 20 21 21 21
16 15 14 13 13 12 12 12 12 11 10 8 7 7 7 7 6 8 14 25 39 46 49 45 40 38 37 38 36 34 30 24 17 10 5 2 4 8 16 27 34 27 16 11 16 6 -3 5 8 9 10 13 12 12 12 12 10 9 10 15 17 18 19 20 21 20 20 20 20
16 16 14 13 12 12 12 13 12 11 10 8 7 7 7 7 7 9 14 25 39 47 49 45 40 37 35 34 32 31 29 24 17 9 2 -1 3 9 17 25 21 8 1 11 12 9 6 6 8 7 8 10 8 7 6 7 6 5 5 9 14 16 17 18 19 19 19 19 18
16 15 14 13 12 12 13 13 13 12 11 9 8 8 8 8 7 9 15 25 38 46 49 47 42 37 34 32 31 31 30 26 18 10 3 -0 4 9 13 14 3 -2 3 19 20 17 13 11 8 6 5 6 5 4 4 4 5 5 5 5 9 13 15 15 15 17 18 18 18
15 15 14 13 12 12 13 13 13 13 11 9 8 8 8 8 8 9 14 22 34 43 49 50 43 37 33 33 33 32 31 27 20 12 6 2 4 6 6 0 -7 -4 6 23 26 24 20 17 11 6 3 3 2 2 3 4 4 4 4 2 6 10 13 12 13 15 17 18 18
15 14 14 13 12 12 13 13 14 13 12 10 8 8 8 8 8 9 12 19 31 41 48 50 43 38 34 34 33 33 31 28 21 15 9 5 3 2 -1 -8 -11 -6 6 26 27 26 23 21 15 9 4 2 -1 -0 2 5 4 4 3 1 5 8 10 9 10 13 16 18 18
14 14 13 12 12 12 13 14 14 14 13 11 8 7 7 8 8 9 11 17 28 39 47 50 45 39 35 34 34 32 30 28 21 15 10 7 3 -0 -5 -11 -15 -10 3 24 28 25 21 20 17 12 8 4 -1 -2 2 7 5 4 3 1 4 6 8 6 7 10 15 18 19
13 13 13 12 12 12 13 13 14 14 13 11 9 7 7 8 9 9 11 14 24 34 43 49 47 42 37 35 35 32 29 25 20 15 10 8 5 1 -5 -13 -18 -15 -2 21 31 27 18 15 16 15 12 8 0 -2 -1 5 6 5 3 1 3 5 6 5 6 9 13 18 19
12 13 13 12 12 12 12 13 14 15 14 12 9 7 7 8 9 9 10 12 19 29 38 46 47 44 40 36 35 33 30 25 21 17 13 9 7 4 -1 -10 -18 -20 -12 8 30 31 21 10 12 13 13 11 3 -1 -2 -0 2 2 2 2 3 5 6 7 8 10 14 17 19
12 12 12 12 12 12 12 13 14 15 15 13 10 8 7 7 8 9 9 10 16 24 33 42 46 47 44 39 36 34 31 27 23 19 16 13 10 8 5 -1 -11 -18 -19 -10 18 30 27 10 8 8 10 13 8 3 -1 -2 -3 -1 1 2 4 6 8 11 13 14 16 17 19
11 12 12 12 12 12 12 13 14 15 15 14 10 8 7 7 8 9 9 10 13 19 27 37 45 48 47 42 38 35 32 29 25 22 19 16 13 11 9 8 1 -8 -14 -16 5 23 30 18 10 5 5 9 11 9 5 -0 -2 -2 -0 2 5 8 11 15 17 17 17 18 19
10 11 12 12 12 12 12 13 14 15 16 15 11 9 7 7 8 8 9 10 12 15 21 30 40 46 48 46 40 36 33 31 28 25 22 19 16 13 10 10 9 5 -1 -8 -3 10 22 26 19 11 4 2 8 10 8 4 1 -0 1 3 6 10 13 16 17 18 18 18 19
10 11 11 12 12 12 12 12 13 15 16 15 13 10 7 7 7 8 9 9 10 13 17 24 34 42 48 49 44 39 35 33 30 28 25 22 20 17 14 11 11 11 10 6 2 3 10 21 25 21 12 2 3 5 7 6 5 4 3 4 8 11 14 16 16 17 17 18 20
9 10 11 12 12 12 12 12 13 14 16 16 14 11 8 7 7 7 8 9 9 11 13 18 27 36 44 49 47 43 38 34 32 30 28 25 24 22 19 15 13 13 13 14 12 9 8 13 21 24 21 12 6 3 3 5 6 6 6 6 8 11 14 17 18 18 18 19 20
Height
5504 5501 5497 5494 5491 5488 5485 5482 5479 5476 5474 5471 5468 5465 5462 5460 5457 5454 5451 5449 5446 5444 5441 5439 5436 5434 5431 5429 5426 5424 5422 5420 5418 5416 5414 5412 5410 5408 5407 5406 5404 5403 5402 5401 5400 5399 5398 5397 5397 5397 5396 5396 5396 5396 5396 5396 5396 5396 5397 5397 5397 5396 5396 5396 5396 5396 5397 5398 5400
5502 5499 5496 5492 5489 5486 5483 5480 5477 5474 5471 5468 5466 5463 5460 5457 5454 5451 5449 5446 5443 5441 5438 5436 5433 5430 5428 5425 5423 5420 5418 5416 5414 5412 5410 5408 5406 5404 5403 5401 5400 5398 5397 5396 5395 5394 5393 5393 5393 5392 5392 5392 5392 5392 5392 5392 5393 5393 5393 5393 5392 5391 5391 5391 5391 5392 5393 5394 5395
5501 5497 5494 5491 5487 5484 5481 5478 5475 5472 5469 5466 5463 5460 5457 5454 5451 5449 5446 5443 5440 5437 5434 5432 5429 5426 5424 5421 5419 5416 5414 5411 5410 5407 5406 5403 5401 5400 5398 5396 5395 5394 5392 5391 5390 5389 5389 5388 5388 5388 5388 5388 5388 5388 5388 5388 5389 5389 5389 5388 5388 5387 5387 5387 5387 5388 5389 5390 5391
5499 5495 5492 5489 5486 5482 5479 5476 5473 5470 5467 5464 5461 5457 5454 5451 5448 5445 5442 5439 5436 5433 5431 5428 5425 5422 5420 5417 5414 5412 5410 5407 5405 5403 5401 5399 5397 5395 5393 5392 5390 5389 5387 5386 5385 5384 5384 5383 5383 5384 5384 5384 5384 5384 5384 5385 5385 5385 5384 5384 5384 5384 5384 5384 5384 5384 5385 5386 5387
5497 5494 5491 5487 5484 5481 5477 5474 5471 5467 5464 5461 5458 5455 5451 5448 5445 5442 5439 5436 5432 5429 5426 5423 5420 5417 5415 5412 5410 5407 5405 5402 5400 5398 5396 5394 5392 5390 5389 5387 5386 5384 5382 5381 5380 5379 5378 5378 5378 5379 5379 5379 5380 5380 5380 5381 5381 5380 5380 5380 5380 5380 5380 5380 5380 5381 5381 5382 5383
5496 5492 5489 5486 5482 5479 5475 5472 5468 5465 5461 5458 5455 5451 5448 5445 5441 5438 5435 5431 5428 5425 5421 5418 5415 5412 5410 5407 5404 5402 5399 5397 5395 5392 5390 5388 5387 5385 5383 5382 5380 5379 5377 5376 5374 5373 5373 5373 5373 5374 5374 5375 5375 5376 5376 5376 5376 5376 5376 5376 5376 5376 5376 5376 5376 5377 5377 5378 5380
5494 5491 5487 5483 5480 5476 5473 5470 5466 5462 5459 5456 5452 5449 5445 5441 5438 5434 5431 5427 5424 5420 5417 5414 5410 5407 5404 5401 5398 5396 5393 5391 5389 5387 5385 5383 5381 5379 5378 5376 5375 5373 5372 5370 5369 5367 5367 5367 5367 5368 5369 5370 5371 5371 5371 5372 5372 5372 5372 5372 5372 5372 5372 5372 5373 5373 5374 5375 5376
5492 5489 5485 5481 5478 5474 5471 5467 5464 5460 5456 5453 5449 5446 5442 5438 5434 5431 5427 5423 5419 5416 5412 5408 5405 5401 5398 5395 5392 5390 5387 5385 5382 5380 5378 5376 5375 5373 5372 5370 5369 5367 5366 5364 5363 5361 5361 5361 5362 5363 5364 5365 5366 5366 5367 5367 5367 5368 5368 5368 5368 5368 5369 5369 5369 5370 5370 5371 5372
5491 5487 5483 5480 5476 5472 5469 5465 5461 5458 5454 5450 5446 5442 5439 5435 5431 5427 5423 5419 5415 5411 5407 5403 5399 5396 5392 5389 5386 5383 5380 5377 5375 5373 5371 5369 5368 5366 5365 5364 5363 5361 5360 5358 5357 5355 5354 5355 5356 5357 5358 5360 5361 5361 5362 5362 5363 5364 5364 5365 5365 5365 5365 5365 5366 5366 5366 5367 5368
5489 5485 5481 5478 5474 5471 5467 5463 5459 5456 5451 5447 5443 5439 5435 5431 5427 5423 5419 5415 5410 5406 5401 5397 5393 5390 5386 5382 5378 5375 5372 5370 5367 5365 5363 5361 5360 5359 5358 5357 5356 5355 5353 5352 5350 5349 5348 5348 5349 5351 5352 5354 5355 5356 5357 5358 5359 5359 5360 5361 5361 5361 5361 5362 5362 5363 5363 5364 5364
5487 5483 5480 5476 5472 5469 5465 5461 5457 5453 5449 5445 5441 5436 5432 5428 5423 5419 5415 5410 5406 5401 5396 5391 5387 5383 5378 5375 5371 5367 5364 5361 5358 5356 5355 5353 5352 5351 5350 5349 5348 5347 5346 5345 5344 5343 5342 5342 5343 5345 5346 5348 5350 5351 5352 5353 5354 5355 5356 5357 5357 5358 5358 5358 5359 5359 5360 5360 5361
5485 5481 5478 5474 5471 5466 5463 5459 5455 5451 5446 5442 5438 5433 5429 5424 5420 5415 5410 5405 5400 5395 5390 5385 5380 5375 5371 5366 5362 5359 5355 5352 5349 5347 5345 5344 5343 5342 5341 5341 5340 5340 5339 5338 5337 5336 5336 5336 5337 5339 5340 5342 5344 5346 5347 5348 5350 5351 5352 5353 5353 5354 5354 5355 5355 5356 5356 5357 5358
5483 5480 5476 5472 5468 5464 5461 5456 5452 5448 5444 5439 5435 5430 5425 5421 5416 5411 5406 5401 5395 5390 5384 5379 5373 5368 5363 5358 5354 5350 5346 5342 5340 5337 5336 5334 5333 5332 5332 5332 5332 5332 5331 5331 5330 5330 5329 5330 5331 5332 5334 5336 5338 5340 5342 5344 5346 5347 5348 5348 5349 5350 5351 5351 5352 5353 5353 5354 5355
5482 5478 5474 5470 5466 5462 5458 5454 5450 5445 5441 5436 5431 5427 5422 5417 5412 5406 5401 5396 5390 5384 5378 5372 5366 5360 5354 5349 5344 5340 5336 5333 5330 5327 5325 5324 5323 5322 5322 5322 5323 5323 5324 5323 5323 5323 5323 5324 5325 5326 5328 5330 5333 5335 5337 5339 5341 5342 5344 5344 5345 5346 5347 5348 5349 5350 5350 5351 5351
5480 5476 5472 5468 5464 5460 5456 5451 5447 5442 5437 5433 5428 5423 5418 5413 5408 5402 5396 5391 5384 5378 5371 5365 5358 5352 5346 5340 5335 5331 5326 5323 5320 5317 5315 5313 5312 5312 5312 5312 5313 5314 5315 5316 5316 5316 5317 5318 5320 5321 5322 5325 5327 5330 5332 5334 5336 5338 5339 5340 5341 5342 5344 5346 5346 5347 5347 5347 5348
5478 5474 5470 5466 5461 5457 5453 5449 5444 5439 5435 5430 5425 5420 5415 5409 5404 5398 5392 5386 5379 5372 5364 5357 5350 5344 5337 5331 5326 5321 5317 5314 5310 5308 5305 5304 5302 5302 5302 5302 5303 5305 5307 5308 5309 5310 5311 5313 5315 5316 5317 5319 5322 5324 5327 5329 5331 5333 5335 5336 5337 5339 5341 5342 5343 5343 5344 5345 5345
5476 5472 5468 5464 5460 5455 5451 5446 5441 5437 5432 5427 5422 5417 5411 5406 5400 5394 5387 5381 5373 5365 5357 5350 5343 5336 5329 5323 5318 5313 5309 5306 5302 5300 5297 5295 5294 5293 5293 5293 5294 5296 5298 5301 5302 5304 5306 5308 5310 5311 5312 5314 5316 5319 5322 5325 5327 5329 5331 5332 5334 5336 5337 5339 5339 5340 5341 5342 5342
5475 5471 5466 5462 5457 5453 5448 5444 5439 5434 5429 5424 5419 5414 5408 5402 5396 5389 5382 5375 5367 5359 5351 5343 5336 5329 5322 5316 5311 5307 5303 5299 5296 5293 5291 5289 5287 5286 5286 5286 5287 5288 5291 5293 5296 5299 5301 5304 5306 5307 5308 5310 5311 5314 5317 5320 5323 5325 5326 5328 5331 5332 5334 5335 5336 5337 5338 5339 5339
5473 5469 5464 5460 5456 5451 5446 5442 5437 5432 5427 5422 5416 5411 5405 5398 5392 5385 5378 5370 5362 5353 5345 5337 5329 5322 5316 5311 5306 5302 5298 5294 5291 5289 5286 5284 5282 5281 5281 5281 5281 5282 5285 5287 5291 5294 5297 5301 5303 5304 5305 5306 5307 5310 5313 5316 5319 5321 5323 5325 5327 5329 5330 5332 5333 5334 5335 5336 5336
5471 5467 5462 5458 5454 5449 5444 5440 5435 5430 5424 5419 5413 5407 5401 5395 5388 5381 5374 5366 5357 5348 5339 5331 5324 5317 5312 5307 5302 5298 5294 5291 5288 5285 5283 5281 5279 5278 5277 5276 5277 5278 5280 5283 5286 5290 5294 5298 5300 5302 5302 5302 5304 5306 5309 5312 5315 5318 5320 5322 5324 5326 5327 5329 5330 5331 5332 5332 5333
5469 5465 5461 5456 5452 5447 5442 5437 5432 5427 5422 5416 5411 5405 5399 5392 5385 5378 5370 5361 5352 5343 5335 5327 5320 5314 5309 5304 5300 5296 5292 5288 5285 5282 5280 5278 5276 5275 5274 5274 5275 5276 5277 5280 5284 5288 5292 5296 5298 5300 5300 5300 5301 5304 5306 5310 5312 5315 5317 5319 5321 5322 5324 5326 5327 5328 5329 5330 5331
5468 5464 5459 5455 5450 5445 5440 5435 5430 5425 5420 5414 5409 5403 5396 5390 5382 5375 5366 5358 5348 5339 5331 5323 5317 5311 5306 5301 5297 5294 5290 5286 5283 5281 5278 5276 5275 5274 5273 5273 5273 5275 5276 5279 5283 5287 5291 5294 5297 5298 5299 5300 5301 5302 5305 5308 5310 5312 5314 5316 5318 5319 5321 5323 5325 5326 5326 5328 5329
5466 5462 5457 5453 5448 5443 5438 5433 5428 5423 5418 5412 5406 5401 5394 5387 5380 5372 5364 5355 5346 5337 5329 5321 5315 5310 5305 5300 5296 5292 5289 5286 5282 5280 5278 5276 5275 5274 5273 5273 5274 5275 5277 5280 5283 5286 5290 5293 5296 5298 5300 5300 5301 5301 5303 5306 5308 5310 5312 5313 5315 5317 5320 5321 5322 5323 5325 5326 5327
5465 5461 5456 5451 5446 5441 5436 5431 5426 5421 5416 5411 5405 5399 5392 5385 5378 5370 5362 5353 5344 5335 5327 5320 5314 5308 5304 5299 5296 5292 5289 5286 5283 5281 5279 5277 5276 5276 5275 5275 5276 5277 5279 5281 5284 5287 5291 5294 5298 5300 5301 5300 5300 5301 5303 5305 5307 5309 5310 5311 5313 5316 5318 5320 5320 5321 5322 5323 5324
5464 5459 5454 5450 5445 5440 5435 5430 5425 5420 5414 5409 5403 5397 5390 5383 5376 5368 5360 5351 5342 5334 5326 5319 5313 5308 5303 5299 5296 5292 5289 5287 5285 5283 5281 5280 5279 5279 5278 5279 5279 5280 5282 5283 5286 5289 5292 5296 5300 5301 5300 5300 5300 5301 5303 5305 5306 5307 5308 5310 5311 5314 5316 5317 5318 5319 5320 5321 5322
5463 5458 5453 5448 5443 5438 5433 5428 5423 5418 5413 5407 5401 5395 5389 5382 5375 5367 5358 5350 5341 5332 5325 5318 5313 5308 5303 5300 5296 5293 5291 5289 5287 5286 5284 5283 5282 5282 5281 5282 5282 5283 5284 5286 5288 5291 5294 5298 5301 5301 5300 5300 5301 5302 5303 5305 5306 5307 5308 5309 5310 5312 5315 5316 5316 5317 5318 5320 5321
5461 5457 5452 5447 5442 5437 5432 5427 5422 5416 5411 5406 5400 5394 5387 5380 5373 5365 5357 5348 5340 5332 5324 5318 5312 5308 5304 5301 5297 5295 5293 5291 5289 5288 5287 5286 5285 5285 5285 5285 5286 5286 5287 5289 5292 5296 5299 5300 5300 5300 5300 5301 5301 5302 5304 5305 5306 5307 5307 5308 5309 5311 5313 5314 5315 5316 5317 5318 5319
5461 5456 5451 5446 5441 5436 5431 5426 5421 5415 5410 5404 5399 5392 5386 5379 5372 5364 5356 5347 5339 5331 5324 5317 5312 5308 5305 5302 5299 5297 5295 5293 5291 5290 5289 5288 5287 5287 5288 5288 5289 5290 5291 5295 5297 5300 5301 5300 5299 5300 5301 5302 5302 5303 5304 5305 5306 5307 5307 5307 5308 5310 5312 5313 5314 5315 5316 5317 5318
5460 5455 5450 5445 5440 5435 5430 5425 5420 5415 5409 5404 5398 5391 5385 5378 5371 5363 5355 5347 5338 5331 5323 5317 5313 5309 5306 5303 5301 5299 5297 5295 5294 5292 5291 5291 5290 5290 5290 5291 5291 5293 5297 5300 5300 5299 5300 5300 5300 5301 5302 5302 5303 5304 5305 5305 5306 5306 5307 5307 5308 5309 5310 5311 5313 5314 5315 5316 5316
5460 5454 5449 5444 5439 5434 5429 5424 5419 5414 5409 5403 5397 5391 5385 5378 5371 5363 5355 5346 5338 5331 5324 5318 5314 5311 5308 5306 5303 5301 5299 5297 5296 5295 5294 5293 5292 5292 5293 5293 5294 5296 5301 5303 5300 5299 5299 5300 5300 5301 5302 5303 5304 5304 5305 5305 5306 5306 5307 5307 5307 5308 5309 5311 5311 5312 5313 5314 5315
5459 5454 5449 5444 5439 5434 5429 5424 5419 5413 5408 5403 5397 5391 5384 5377 5370 5362 5355 5347 5339 5332 5325 5320 5316 5313 5310 5307 5305 5303 5301 5300 5299 5297 5296 5295 5295 5295 5295 5296 5296 5298 5301 5303 5301 5299 5300 5300 5301 5301 5302 5303 5304 5305 5305 5305 5305 5306 5306 5307 5307 5307 5308 5309 5310 5311 5312 5313 5313
5459 5454 5449 5444 5439 5434 5429 5424 5418 5413 5408 5402 5397 5391 5384 5377 5371 5363 5356 5348 5341 5333 5327 5322 5318 5315 5312 5309 5307 5305 5303 5302 5301 5300 5299 5297 5297 5297 5297 5298 5297 5299 5302 5303 5301 5299 5300 5300 5301 5302 5302 5303 5304 5305 5305 5305 5305 5305 5306 5306 5306 5306 5307 5308 5309 5310 5311 5312 5312
5459 5454 5449 5444 5439 5434 5429 5424 5418 5413 5408 5403 5397 5391 5385 5378 5371 5364 5356 5349 5342 5336 5330 5324 5321 5317 5314 5311 5309 5307 5305 5304 5303 5302 5301 5300 5299 5299 5299 5299 5297 5299 5303 5305 5301 5300 5300 5301 5301 5302 5303 5304 5305 5305 5305 5304 5305 5305 5305 5305 5305 5306 5306 5307 5309 5310 5310 5311 5311
5459 5454 5449 5444 5439 5434 5429 5424 5419 5414 5408 5403 5398 5392 5386 5379 5372 5366 5358 5351 5344 5337 5331 5326 5322 5319 5316 5313 5311 5309 5307 5306 5305 5304 5303 5302 5301 5301 5301 5300 5299 5300 5303 5306 5303 5301 5301 5301 5302 5303 5303 5304 5305 5305 5304 5304 5304 5304 5304 5304 5305 5305 5306 5307 5308 5309 5309 5310 5310
5460 5455 5450 5445 5440 5435 5430 5424 5419 5414 5409 5404 5399 5393 5387 5381 5374 5367 5361 5354 5347 5340 5334 5329 5324 5321 5318 5315 5313 5311 5309 5307 5306 5305 5304 5304 5303 5302 5302 5301 5301 5301 5303 5307 5304 5302 5302 5303 5303 5303 5304 5305 5305 5305 5304 5303 5303 5303 5303 5304 5304 5305 5305 5306 5307 5307 5308 5308 5309
5460 5455 5450 5445 5440 5435 5430 5425 5420 5415 5410 5405 5400 5394 5388 5382 5376 5369 5363 5356 5350 5343 5337 5331 5327 5323 5320 5317 5315 5312 5311 5309 5308 5306 5306 5305 5304 5304 5303 5303 5302 5301 5303 5307 5306 5304 5303 5304 5304 5304 5305 5305 5305 5305 5304 5302 5302 5302 5302 5303 5303 5304 5305 5305 5306 5306 5307 5307 5308
5460 5455 5450 5446 5441 5436 5431 5426 5421 5416 5411 5406 5401 5395 5389 5383 5377 5371 5365 5359 5352 5346 5340 5335 5330 5326 5322 5319 5316 5315 5312 5311 5309 5308 5306 5306 5305 5305 5305 5304 5303 5302 5303 5306 5306 5305 5304 5304 5305 5305 5305 5306 5306 5305 5304 5302 5301 5301 5301 5302 5303 5303 5304 5305 5306 5306 5306 5307 5308
5460 5456 5451 5446 5441 5436 5432 5427 5422 5417 5412 5407 5402 5396 5391 5385 5379 5373 5367 5361 5355 5349 5343 5337 5332 5328 5324 5321 5318 5316 5314 5312 5311 5309 5308 5307 5306 5306 5305 5305 5304 5304 5304 5305 5306 5306 5305 5305 5305 5305 5306 5306 5306 5306 5305 5303 5302 5301 5301 5302 5302 5303 5304 5305 5306 5306 5307 5307 5308
5461 5456 5451 5446 5442 5437 5432 5427 5423 5418 5413 5408 5403 5397 5392 5386 5380 5375 5369 5363 5358 5352 5346 5341 5335 5331 5326 5323 5320 5317 5316 5314 5312 5311 5309 5308 5307 5306 5305 5305 5305 5304 5304 5304 5305 5305 5305 5306 5306 5306 5306 5306 5306 5306 5305 5304 5303 5302 5302 5302 5303 5303 5304 5305 5306 5307 5308 5308 5309
5461 5456 5452 5447 5442 5438 5433 5428 5424 5419 5414 5409 5404 5399 5393 5388 5382 5377 5371 5366 5361 5355 5349 5344 5338 5333 5329 5325 5321 5319 5317 5315 5313 5312 5310 5309 5308 5307 5306 5305 5305 5305 5304 5304 5304 5305 5305 5305 5306 5306 5306 5306 5306 5305 5305 5305 5304 5303 5303 5303 5303 5303 5304 5305 5306 5307 5308 5308 5309
5462 5457 5452 5448 5443 5438 5434 5429 5425 5420 5416 5411 5406 5401 5396 5391 5385 5379 5374 5369 5363 5358 5353 5347 5341 5336 5331 5327 5324 5321 5318 5316 5315 5313 5311 5310 5309 5308 5307 5306 5305 5305 5305 5305 5305 5305 5305 5305 5305 5305 5305 5305 5305 5305 5305 5305 5304 5304 5304 5303 5303 5303 5304 5304 5305 5306 5306 5307 5307